Lid_Strength_Index
-0 -0 0 3 11 12 15 13 10 11 10 7 6 7 8 8 9 13 2 1 0 0 -0 -1 -2 -2 -1 -1 -2 -1 -1 -1 -1 -1 -1 -1 -1 -1 -2 -1 -1 -2 -1 -1 -2 -1 -2 -2 -2
-0 1 2 6 13 17 15 11 11 10 7 6 6 7 8 9 5 4 3 1 -0 -0 -0 -0 -1 -2 -2 -1 -1 -1 -1 -1 -1 -1 -1 -1 -1 -2 -2 -2 -2 -2 -1 -1 -1 -2 -2 -2 -1
0 1 7 10 13 16 15 11 10 8 6 7 8 6 7 8 4 4 1 0 -0 0 0 -0 -2 -2 -2 -1 -1 -2 -2 -1 -1 -2 -1 -1 -1 -2 -2 -2 -1 -1 -2 -2 -2 -2 -2 -1 -1
2 4 6 13 14 12 11 10 8 8 7 6 6 9 5 3 3 2 0 -0 0 -0 -0 -1 -2 -1 -2 -1 -1 -2 -1 -1 -1 -1 -1 -2 -1 -2 -2 -2 -1 -1 -1 -2 -1 -2 -1 -2 -1
2 6 12 14 13 11 9 8 8 9 8 7 6 9 8 3 1 1 1 0 1 0 0 -0 -2 -1 -1 -2 -1 -2 -1 -1 -1 -2 -1 -2 -2 -2 -1 -1 -1 -1 -1 -1 -2 -2 -2 -2 -1
8 7 14 16 13 10 8 7 7 8 8 7 8 8 7 2 2 1 0 1 -0 0 -0 -0 -1 -1 -1 -2 -1 -1 -1 -1 -1 -1 -1 -1 -2 -1 -1 -1 -2 -2 -1 -2 -2 -2 -2 -2 -2
9 11 13 13 13 11 9 7 8 8 8 8 6 9 6 4 2 1 1 0 -0 -0 -0 -0 -0 -1 -2 -2 -1 -1 -1 -1 -1 -1 -1 -1 -1 -1 -1 -1 -2 -1 -2 -2 -2 -2 -2 -2 -2
7 9 12 12 13 13 8 7 6 7 8 4 4 9 9 4 2 1 1 1 0 0 -0 0 0 0 -0 -0 -2 -1 -1 -1 -1 -1 -1 -1 -1 -1 -1 -1 -1 -2 -1 -2 -2 -2 -2 -2 -2
5 12 14 12 12 11 7 8 6 5 7 6 5 5 4 2 1 2 2 2 1 1 0 1 1 0 0 -0 -1 -1 -1 -1 -1 -1 -1 -1 -0 -1 -1 -1 -1 -1 -2 -1 -1 -2 -2 -2 -1
8 13 12 8 8 9 8 8 7 7 8 7 6 4 3 3 3 3 3 3 2 2 1 1 1 0 0 -1 -0 -0 -1 -0 -0 -0 -0 -1 -1 -1 -1 -1 -1 -1 -1 -1 -2 -1 -2 -1 -1
8 12 9 8 7 7 8 8 6 8 9 7 8 6 4 4 4 3 3 3 2 1 1 1 1 0 0 -0 0 0 0 -0 -0 -0 1 0 -1 -1 -1 -0 1 1 -1 -1 -1 -1 -1 -1 -1
11 8 8 7 6 7 8 7 8 7 7 5 5 4 4 4 4 4 3 3 2 2 1 1 1 0 0 0 0 -0 0 0 -0 -0 1 -0 -0 -0 -1 -1 -0 -1 -1 -0 -1 -1 -1 -1 -1
10 8 7 7 7 7 6 8 8 8 5 4 4 4 5 4 4 3 2 2 2 2 1 1 1 0 0 1 0 -0 0 -0 -0 0 1 -0 0 1 0 -1 -1 -1 -1 -1 -1 -1 -1 -1 0
7 7 7 7 7 7 8 8 7 7 5 5 5 5 5 4 4 3 3 3 2 2 1 1 1 -0 0 0 0 -0 -0 -0 -0 0 -1 0 1 0 -0 -1 -1 -1 -1 -1 -0 -1 -1 -1 -1
8 11 9 9 8 8 6 10 10 6 5 6 6 5 5 4 3 4 3 3 2 2 1 1 1 -0 0 -0 -0 -0 -0 -0 -0 -0 -1 0 -0 0 -0 -0 -1 -1 -1 -1 -0 -1 -0 -1 -0
11 12 13 10 8 7 8 13 9 6 7 7 6 6 5 4 4 3 2 2 2 1 1 1 0 0 0 0 -0 0 0 -0 -0 -0 -1 -1 -1 -0 -0 -0 -1 -1 -1 -1 -1 -0 1 0 -0
15 14 13 11 7 8 9 12 9 6 7 7 7 6 5 5 4 3 2 2 2 1 1 1 1 1 0 1 0 1 0 0 0 -0 -1 -1 -1 -1 -0 -0 -0 -1 -0 -1 -0 0 -0 1 0
15 15 13 12 9 9 10 11 9 7 7 8 7 6 6 5 4 3 2 2 1 1 2 1 1 1 0 1 1 1 -0 0 0 -0 -1 -1 -1 -1 -0 0 -1 1 -0 -0 -0 0 1 0 1
11 12 12 11 9 10 11 11 10 8 8 8 7 7 6 5 4 3 2 2 2 2 2 2 1 1 1 1 1 1 1 1 0 -0 -1 -1 -1 -1 1 -0 0 1 -0 -0 -0 0 1 1 1
11 14 13 12 10 10 11 11 10 9 8 8 7 7 6 5 5 4 3 2 2 2 3 2 2 1 1 1 1 1 2 1 1 0 -0 -0 -1 -0 0 -0 -0 -1 -0 0 0 -0 1 1 1
12 14 14 13 12 9 11 12 12 9 8 7 7 6 6 6 5 4 4 3 2 2 3 2 2 1 1 1 1 1 2 1 1 1 0 0 -1 -1 -0 -0 -0 -0 -0 0 0 -0 1 2 1
15 10 11 12 14 16 10 17 12 11 10 9 8 7 6 6 5 4 4 3 3 2 2 2 2 1 1 0 1 1 2 2 2 1 1 -0 -1 -1 -1 -0 -1 -1 -1 0 -0 0 1 0 2
12 9 10 12 14 16 14 15 13 11 13 10 8 7 6 5 5 5 4 3 2 2 2 2 2 2 1 1 1 1 2 2 2 1 1 0 -0 -1 -0 -1 -0 -0 -0 -0 -0 0 0 2 1
9 10 10 11 15 18 15 14 14 14 12 10 8 7 6 5 5 4 3 3 3 2 2 2 2 2 1 1 1 1 2 2 2 1 1 1 0 0 -0 -1 -0 -0 -0 -0 0 0 1 1 1
10 13 16 18 18 17 14 15 13 10 9 8 9 7 6 5 5 4 4 4 3 3 2 2 2 2 1 1 1 1 1 1 1 1 1 1 1 1 0 -0 -0 0 -0 -0 -0 0 0 0 1
12 13 16 20 19 16 14 17 13 9 7 7 6 6 6 6 5 5 4 4 3 3 2 2 2 2 1 1 1 1 1 1 1 1 1 1 1 1 -0 -0 -0 -0 -0 0 -0 0 0 0 1
12 13 11 15 15 16 14 13 10 9 8 7 7 6 6 6 5 4 4 3 3 3 2 2 2 2 2 1 1 1 1 1 1 1 0 1 0 0 -0 -0 -0 -0 -0 -0 0 0 0 -0 0
12 10 14 15 20 20 16 15 13 11 10 8 8 7 6 5 5 4 4 3 3 2 2 2 2 2 2 1 1 1 1 1 1 0 1 1 0 0 0 0 -0 -0 -0 -0 0 0 0 0 0
13 13 12 12 14 17 18 15 11 9 8 9 8 7 6 6 5 4 4 3 3 2 2 2 2 2 2 1 1 1 1 1 1 1 1 1 1 0 0 0 0 0 0 -0 0 0 0 1 0
12 14 13 14 16 14 15 14 9 9 8 8 8 6 6 5 5 4 4 3 3 3 3 2 2 2 2 1 1 1 1 1 1 1 1 0 1 1 0 0 0 0 0 0 0 1 0 1 1